Time,TemperatureF,DewpointF,PressureIn,WindDirection,WindDirectionDegrees,WindSpeedMPH,WindSpeedGustMPH,Humidity,HourlyPrecipIn,Conditions,Clouds,dailyrainin,SoftwareType,DateUTC
2013-02-08 00:14:00,39.4,37.0,30.00,NE,36,3.0,7.0,91,0.00,,,0.00,weatherlink.com 1.10,2013-02-08 05:14:00,
2013-02-08 00:29:00,39.3,37.0,30.00,NNE,18,1.0,5.0,91,0.00,,,0.00,weatherlink.com 1.10,2013-02-08 05:29:00,
2013-02-08 00:44:00,39.1,37.0,30.00,NE,56,0.0,5.0,91,0.00,,,0.00,weatherlink.com 1.10,2013-02-08 05:44:00,
2013-02-08 00:59:00,39.0,37.0,29.98,NW,320,2.0,4.0,91,0.00,,,0.00,weatherlink.com 1.10,2013-02-08 05:59:00,
2013-02-08 01:15:00,39.0,37.0,29.98,NNW,344,2.0,5.0,91,0.00,,,0.00,weatherlink.com 1.10,2013-02-08 06:15:00,
2013-02-08 01:30:00,38.9,37.0,29.97,North,355,1.0,6.0,91,0.00,,,0.00,weatherlink.com 1.10,2013-02-08 06:30:00,
2013-02-08 01:45:00,38.9,37.0,29.96,North,360,2.0,7.0,91,0.00,,,0.00,weatherlink.com 1.10,2013-02-08 06:45:00,
2013-02-08 02:00:00,39.0,37.0,29.95,North,360,4.0,10.0,91,0.00,,,0.00,weatherlink.com 1.10,2013-02-08 07:00:00,
2013-02-08 02:15:00,39.1,37.0,29.94,WNW,300,2.0,7.0,91,0.00,,,0.00,weatherlink.com 1.10,2013-02-08 07:15:00,
2013-02-08 02:30:00,39.3,37.0,29.94,NNE,33,4.0,7.0,90,0.00,,,0.00,weatherlink.com 1.10,2013-02-08 07:30:00,
2013-02-08 02:45:00,39.5,37.0,29.95,NW,319,5.0,8.0,90,0.00,,,0.00,weatherlink.com 1.10,2013-02-08 07:45:00,
2013-02-08 03:15:00,39.8,37.0,29.95,NE,49,3.0,7.0,89,0.00,,,0.00,weatherlink.com 1.10,2013-02-08 08:15:00,
2013-02-08 03:30:00,40.0,37.0,29.95,NNW,332,2.0,8.0,89,0.00,,,0.00,weatherlink.com 1.10,2013-02-08 08:30:00,
2013-02-08 03:45:00,39.9,37.0,29.93,NE,34,0.0,6.0,89,0.00,,,0.00,weatherlink.com 1.10,2013-02-08 08:45:00,
2013-02-08 04:00:00,39.9,37.0,29.93,North,360,0.0,4.0,90,0.00,,,0.00,weatherlink.com 1.10,2013-02-08 09:00:00,
2013-02-08 04:15:00,39.6,37.0,29.93,North,9,4.0,5.0,90,0.00,,,0.00,weatherlink.com 1.10,2013-02-08 09:15:00,
2013-02-08 04:30:00,39.7,37.0,29.94,North,355,3.0,4.0,90,0.00,,,0.00,weatherlink.com 1.10,2013-02-08 09:30:00,
2013-02-08 04:45:00,40.0,37.0,29.94,North,360,0.0,5.0,90,0.00,,,0.00,weatherlink.com 1.10,2013-02-08 09:45:00,
2013-02-08 05:00:00,40.1,37.0,29.93,NW,321,2.0,5.0,89,0.00,,,0.00,weatherlink.com 1.10,2013-02-08 10:00:00,
2013-02-08 05:15:00,40.2,38.0,29.93,NNE,15,0.0,2.0,90,0.00,,,0.00,weatherlink.com 1.10,2013-02-08 10:15:00,
2013-02-08 05:30:00,40.2,37.0,29.93,NW,323,0.0,5.0,89,0.00,,,0.00,weatherlink.com 1.10,2013-02-08 10:30:00,
2013-02-08 05:45:00,40.4,38.0,29.93,North,9,0.0,4.0,89,0.00,,,0.00,weatherlink.com 1.10,2013-02-08 10:45:00,
2013-02-08 06:00:00,40.4,38.0,29.93,NNW,331,3.0,6.0,89,0.00,,,0.00,weatherlink.com 1.10,2013-02-08 11:00:00,
2013-02-08 06:15:00,40.1,37.0,29.93,NNW,334,1.0,3.0,89,0.00,,,0.00,weatherlink.com 1.10,2013-02-08 11:15:00,
2013-02-08 06:30:00,39.6,37.0,29.92,NNW,329,0.0,1.0,89,0.00,,,0.00,weatherlink.com 1.10,2013-02-08 11:30:00,
2013-02-08 06:45:00,39.2,37.0,29.92,NNW,333,1.0,2.0,90,0.01,,,0.01,weatherlink.com 1.10,2013-02-08 11:45:00,
2013-02-08 07:00:00,38.2,36.0,29.92,NW,325,0.0,0.0,90,0.01,,,0.01,weatherlink.com 1.10,2013-02-08 12:00:00,
2013-02-08 07:15:00,37.4,35.0,29.92,West,271,0.0,2.0,91,0.01,,,0.01,weatherlink.com 1.10,2013-02-08 12:15:00,
2013-02-08 07:30:00,36.3,34.0,29.93,West,271,2.0,2.0,91,0.01,,,0.01,weatherlink.com 1.10,2013-02-08 12:30:00,
2013-02-08 07:45:00,37.0,35.0,29.93,SW,233,0.0,1.0,91,0.00,,,0.01,weatherlink.com 1.10,2013-02-08 12:45:00,
2013-02-08 08:00:00,37.0,35.0,29.93,SW,233,0.0,0.0,91,0.00,,,0.01,weatherlink.com 1.10,2013-02-08 13:00:00,
2013-02-08 08:15:00,38.4,36.0,29.93,SW,232,0.0,1.0,92,0.00,,,0.01,weatherlink.com 1.10,2013-02-08 13:15:00,
2013-02-08 08:30:00,41.3,39.0,29.94,West,273,1.0,5.0,90,0.00,,,0.01,weatherlink.com 1.10,2013-02-08 13:30:00,
2013-02-08 08:45:00,42.9,40.0,29.95,West,269,2.0,6.0,88,0.00,,,0.01,weatherlink.com 1.10,2013-02-08 13:45:00,
2013-02-08 09:01:00,43.9,40.0,29.95,NW,315,3.0,7.0,86,0.00,,,0.01,weatherlink.com 1.10,2013-02-08 14:01:00,
2013-02-08 09:16:00,44.5,41.0,29.95,NW,324,2.0,4.0,86,0.00,,,0.01,weatherlink.com 1.10,2013-02-08 14:16:00,
2013-02-08 09:31:00,44.8,40.0,29.95,WNW,288,0.0,3.0,84,0.00,,,0.01,weatherlink.com 1.10,2013-02-08 14:31:00,
2013-02-08 09:46:00,45.4,41.0,29.94,SW,220,1.0,1.0,85,0.00,,,0.01,weatherlink.com 1.10,2013-02-08 14:46:00,
2013-02-08 10:01:00,46.2,41.0,29.95,WSW,255,2.0,4.0,83,0.00,,,0.01,weatherlink.com 1.10,2013-02-08 15:01:00,
2013-02-08 10:16:00,47.9,42.0,29.94,WNW,290,3.0,4.0,81,0.00,,,0.01,weatherlink.com 1.10,2013-02-08 15:16:00,
2013-02-08 10:31:00,47.9,42.0,29.94,WSW,240,3.0,8.0,80,0.00,,,0.01,weatherlink.com 1.10,2013-02-08 15:31:00,
2013-02-08 10:46:00,48.1,43.0,29.95,WSW,240,7.0,8.0,81,0.00,,,0.01,weatherlink.com 1.10,2013-02-08 15:46:00,
2013-02-08 11:01:00,48.8,44.0,29.94,SSW,195,5.0,8.0,82,0.00,,,0.01,weatherlink.com 1.10,2013-02-08 16:01:00,
2013-02-08 11:16:00,50.1,45.0,29.93,West,259,4.0,9.0,81,0.00,,,0.01,weatherlink.com 1.10,2013-02-08 16:16:00,
2013-02-08 11:31:00,50.8,45.0,29.93,West,259,5.0,10.0,81,0.00,,,0.01,weatherlink.com 1.10,2013-02-08 16:31:00,
2013-02-08 11:46:00,50.6,44.0,29.92,SSW,203,3.0,12.0,79,0.00,,,0.01,weatherlink.com 1.10,2013-02-08 16:46:00,
2013-02-08 12:01:00,51.6,45.0,29.92,West,263,6.0,9.0,79,0.00,,,0.01,weatherlink.com 1.10,2013-02-08 17:01:00,
2013-02-08 12:16:00,53.3,46.0,29.91,SSW,192,7.0,13.0,76,0.00,,,0.01,weatherlink.com 1.10,2013-02-08 17:16:00,
2013-02-08 12:31:00,54.4,47.0,29.90,SW,233,5.0,11.0,75,0.00,,,0.01,weatherlink.com 1.10,2013-02-08 17:31:00,
2013-02-08 12:46:00,55.4,48.0,29.89,SW,229,6.0,11.0,76,0.00,,,0.01,weatherlink.com 1.10,2013-02-08 17:46:00,
2013-02-08 13:01:00,55.5,47.0,29.89,WSW,247,7.0,11.0,72,0.00,,,0.01,weatherlink.com 1.10,2013-02-08 18:01:00,
2013-02-08 13:16:00,55.9,47.0,29.88,West,279,5.0,11.0,72,0.00,,,0.01,weatherlink.com 1.10,2013-02-08 18:16:00,
2013-02-08 13:31:00,56.9,46.0,29.88,SW,229,6.0,12.0,67,0.00,,,0.01,weatherlink.com 1.10,2013-02-08 18:31:00,
2013-02-08 13:46:00,57.7,43.0,29.88,NW,313,10.0,20.0,58,0.00,,,0.01,weatherlink.com 1.10,2013-02-08 18:46:00,
2013-02-08 14:01:00,57.2,42.0,29.88,West,278,18.0,20.0,58,0.00,,,0.01,weatherlink.com 1.10,2013-02-08 19:01:00,
2013-02-08 14:16:00,56.4,42.0,29.88,WNW,294,11.0,17.0,59,0.00,,,0.01,weatherlink.com 1.10,2013-02-08 19:16:00,
2013-02-08 14:31:00,56.0,42.0,29.88,West,272,8.0,19.0,60,0.00,,,0.01,weatherlink.com 1.10,2013-02-08 19:31:00,
2013-02-08 14:46:00,56.1,42.0,29.87,WSW,246,8.0,18.0,59,0.00,,,0.01,weatherlink.com 1.10,2013-02-08 19:46:00,
2013-02-08 15:01:00,56.3,39.0,29.88,West,268,12.0,17.0,53,0.00,,,0.01,weatherlink.com 1.10,2013-02-08 20:01:00,
2013-02-08 15:16:00,55.9,38.0,29.88,WNW,291,11.0,17.0,52,0.00,,,0.01,weatherlink.com 1.10,2013-02-08 20:16:00,
2013-02-08 15:31:00,55.6,38.0,29.89,WNW,289,9.0,16.0,52,0.00,,,0.01,weatherlink.com 1.10,2013-02-08 20:31:00,
2013-02-08 15:46:00,56.2,38.0,29.89,WSW,240,11.0,13.0,51,0.00,,,0.01,weatherlink.com 1.10,2013-02-08 20:46:00,
2013-02-08 16:01:00,56.5,35.0,29.90,West,264,10.0,15.0,44,0.00,,,0.01,weatherlink.com 1.10,2013-02-08 21:01:00,
2013-02-08 16:16:00,56.7,35.0,29.90,WNW,302,5.0,15.0,44,0.00,,,0.01,weatherlink.com 1.10,2013-02-08 21:16:00,
2013-02-08 16:31:00,56.8,33.0,29.91,West,275,6.0,15.0,40,0.00,,,0.01,weatherlink.com 1.10,2013-02-08 21:31:00,
2013-02-08 16:46:00,56.6,32.0,29.91,WNW,291,9.0,15.0,39,0.00,,,0.01,weatherlink.com 1.10,2013-02-08 21:46:00,
2013-02-08 17:01:00,56.5,31.0,29.92,WNW,294,8.0,14.0,38,0.00,,,0.01,weatherlink.com 1.10,2013-02-08 22:01:00,
2013-02-08 17:17:00,55.6,30.0,29.92,NW,321,5.0,14.0,38,0.00,,,0.01,weatherlink.com 1.10,2013-02-08 22:17:00,
2013-02-08 17:31:00,55.1,30.0,29.93,NW,312,4.0,12.0,38,0.00,,,0.01,weatherlink.com 1.10,2013-02-08 22:31:00,
2013-02-08 17:47:00,54.1,29.0,29.94,West,271,9.0,13.0,39,0.00,,,0.01,weatherlink.com 1.10,2013-02-08 22:47:00,
2013-02-08 18:02:00,52.9,31.0,29.95,West,281,8.0,9.0,43,0.00,,,0.01,weatherlink.com 1.10,2013-02-08 23:02:00,
2013-02-08 18:17:00,51.9,30.0,29.95,WNW,290,1.0,8.0,44,0.00,,,0.01,weatherlink.com 1.10,2013-02-08 23:17:00,
2013-02-08 18:32:00,50.8,30.0,29.96,North,360,0.0,4.0,45,0.00,,,0.01,weatherlink.com 1.10,2013-02-08 23:32:00,
2013-02-08 18:47:00,48.9,31.0,29.97,WSW,246,0.0,2.0,50,0.00,,,0.01,weatherlink.com 1.10,2013-02-08 23:47:00,
2013-02-08 19:02:00,45.9,32.0,29.98,WSW,246,1.0,2.0,58,0.00,,,0.01,weatherlink.com 1.10,2013-02-09 00:02:00,
2013-02-08 19:17:00,43.0,31.0,29.99,WSW,246,0.0,1.0,64,0.00,,,0.01,weatherlink.com 1.10,2013-02-09 00:17:00,
2013-02-08 19:32:00,41.7,31.0,29.99,WSW,246,0.0,0.0,67,0.00,,,0.01,weatherlink.com 1.10,2013-02-09 00:32:00,
2013-02-08 19:47:00,40.6,31.0,30.00,WSW,237,0.0,1.0,69,0.00,,,0.01,weatherlink.com 1.10,2013-02-09 00:47:00,
2013-02-08 20:02:00,39.4,31.0,30.01,West,270,1.0,2.0,73,0.00,,,0.01,weatherlink.com 1.10,2013-02-09 01:02:00,
2013-02-08 20:17:00,38.9,31.0,30.02,WSW,254,0.0,2.0,74,0.00,,,0.01,weatherlink.com 1.10,2013-02-09 01:17:00,
2013-02-08 20:32:00,37.4,31.0,30.03,WSW,254,0.0,0.0,79,0.00,,,0.01,weatherlink.com 1.10,2013-02-09 01:32:00,
2013-02-08 20:47:00,37.0,30.0,30.04,WSW,254,0.0,0.0,77,0.00,,,0.01,weatherlink.com 1.10,2013-02-09 01:47:00,
2013-02-08 21:02:00,42.0,30.0,30.05,NNW,348,0.0,5.0,63,0.00,,,0.01,weatherlink.com 1.10,2013-02-09 02:02:00,
2013-02-08 21:17:00,43.3,30.0,30.06,NNW,331,5.0,5.0,59,0.00,,,0.01,weatherlink.com 1.10,2013-02-09 02:17:00,
2013-02-08 21:32:00,43.2,29.0,30.06,NW,323,4.0,5.0,57,0.00,,,0.01,weatherlink.com 1.10,2013-02-09 02:32:00,
2013-02-08 21:47:00,42.7,29.0,30.07,NNW,333,3.0,5.0,59,0.00,,,0.01,weatherlink.com 1.10,2013-02-09 02:47:00,
2013-02-08 22:02:00,41.8,29.0,30.08,WNW,292,1.0,3.0,60,0.00,,,0.01,weatherlink.com 1.10,2013-02-09 03:02:00,
2013-02-08 22:17:00,41.1,28.0,30.09,NNW,336,1.0,4.0,61,0.00,,,0.01,weatherlink.com 1.10,2013-02-09 03:17:00,
2013-02-08 22:32:00,40.9,28.0,30.09,NNW,346,1.0,5.0,61,0.00,,,0.01,weatherlink.com 1.10,2013-02-09 03:32:00,
2013-02-08 22:47:00,40.9,28.0,30.09,WNW,301,0.0,6.0,61,0.00,,,0.01,weatherlink.com 1.10,2013-02-09 03:47:00,
2013-02-08 23:02:00,40.2,28.0,30.09,NNW,340,0.0,3.0,61,0.00,,,0.01,weatherlink.com 1.10,2013-02-09 04:02:00,
2013-02-08 23:17:00,38.6,28.0,30.10,WNW,286,0.0,2.0,66,0.00,,,0.01,weatherlink.com 1.10,2013-02-09 04:17:00,
2013-02-08 23:32:00,37.1,28.0,30.11,West,274,1.0,2.0,69,0.00,,,0.01,weatherlink.com 1.10,2013-02-09 04:32:00,
2013-02-08 23:47:00,36.4,28.0,30.12,West,274,1.0,2.0,72,0.00,,,0.01,weatherlink.com 1.10,2013-02-09 04:47:00,